Roseburg, OR

2:11 PM PST on November 19, 2017 (GMT -0800)
Roseburg Regional

Weather History for KRBG - January, 2014

Change the Weather History Date:

Wednesday, January 22, 2014

  Actual Average Record
Temperature  
Mean Temperature 40 °F 44 °F  
Max Temperature 46 °F 50 °F 65 °F (1931)
Min Temperature 34 °F 37 °F -1 °F (1962)
Degree Days  
Heating Degree Days 25 21  
Month to date heating degree days 493 490  
Since 1 July heating degree days 2276 2130  
Cooling Degree Days 0 0  
Month to date cooling degree days 0 0  
Year to date cooling degree days 0 0  
Moisture  
Dew Point 35 °F    
Average Humidity 86    
Maximum Humidity 96    
Minimum Humidity 76    
Precipitation  
Precipitation 0.00 in 0.12 in 1.53 in (1972)
Month to date precipitation 1.28 4.03  
Year to date precipitation 1.28 4.03  
Sea Level Pressure  
Sea Level Pressure 30.34 in    
Wind  
Wind Speed 2 mph (North)    
Max Wind Speed 12 mph    
Max Gust Speed 14 mph    
Visibility 5 miles    
Events Fog    
T = Trace of Precipitation, MM = Missing Value Source: NWS Daily Summary

Daily Weather History Graph

Daily Weather History Graph

Search for Another Location

Airport or City:

Trip Planner

Search our weather history database for the weather conditions in past years. The results will help you decide how hot, cold, wet, or windy it might be!

Date:

Astronomy

Jan. 22, 2014 Rise Set
Actual Time 7:38 AM PST 5:12 PM PST
Civil Twilight 7:07 AM PST 5:43 PM PST
Nautical Twilight 6:32 AM PST 6:18 PM PST
Astronomical Twilight 5:58 AM PST 6:52 PM PST
Moon No Moon Rise 10:30 AM PST (1/22)
Length of Visible Light 10h 36m
Length of Day
9h 34m
Waning Gibbous, 64% of the Moon is Illuminated
Jan 22
Waning Gibbous
Jan 23
Last Quarter
Jan 30
New
Feb 6
First Quarter
Feb 14
Full

Hourly Weather History & Observations

Time (PST) Temp. Windchill Dew Point Humidity Pressure Visibility Wind Dir Wind Speed Gust Speed Precip Events Conditions
12:45 AM 34.0 °F - 30.9 °F 89% 30.36 in 4.0 mi Calm Calm - N/A   Scattered Clouds
12:53 AM 34.0 °F - 32.0 °F 92% 30.37 in 4.0 mi Calm Calm - N/A   Mostly Cloudy
1:00 AM 34.0 °F - 32.0 °F 92% 30.36 in 2.5 mi Calm Calm - N/A   Mostly Cloudy
1:07 AM 34.0 °F - 33.1 °F 96% 30.36 in 0.8 mi Calm Calm - N/A   Overcast
1:22 AM 34.0 °F - 32.0 °F 92% 30.35 in 0.2 mi Calm Calm - N/A Fog Fog
1:53 AM 35.1 °F - 33.1 °F 92% 30.37 in 0.5 mi Calm Calm - N/A Fog Fog
2:12 AM 35.1 °F - 33.1 °F 92% 30.36 in 0.2 mi Calm Calm - N/A Fog Fog
2:53 AM 36.0 °F - 34.0 °F 93% 30.37 in 0.2 mi Calm Calm - N/A Fog Fog
3:53 AM 36.0 °F - 34.0 °F 93% 30.37 in 0.2 mi Calm Calm - N/A Fog Fog
4:30 AM 37.0 °F 34.5 °F 35.1 °F 93% 30.36 in 0.5 mi NNW 3.5 mph - N/A Fog Fog
4:53 AM 37.0 °F 34.5 °F 35.1 °F 93% 30.37 in 0.5 mi NNE 3.5 mph - N/A Fog Fog
5:53 AM 37.0 °F - 35.1 °F 93% 30.38 in 0.5 mi Calm Calm - N/A Fog Fog
6:53 AM 37.0 °F - 35.1 °F 93% 30.37 in 0.5 mi Calm Calm - N/A Fog Fog
7:16 AM 37.0 °F - 35.1 °F 93% 30.36 in 1.0 mi Calm Calm - N/A   Overcast
7:31 AM 37.0 °F - 35.1 °F 93% 30.36 in 0.8 mi Calm Calm - N/A   Overcast
7:53 AM 37.0 °F 33.3 °F 36.0 °F 96% 30.38 in 0.5 mi North 4.6 mph - N/A Fog Fog
7:59 AM 37.0 °F 34.5 °F 34.0 °F 89% 30.36 in 2.5 mi North 3.5 mph - N/A   Overcast
8:06 AM 37.0 °F 34.5 °F 34.0 °F 89% 30.36 in 6.0 mi North 3.5 mph - N/A   Overcast
8:31 AM 37.0 °F 34.5 °F 34.0 °F 89% 30.36 in 1.8 mi NNW 3.5 mph - N/A   Overcast
8:46 AM 37.0 °F 32.4 °F 34.0 °F 89% 30.35 in 3.0 mi North 5.8 mph - N/A   Overcast
8:53 AM 37.0 °F 33.3 °F 35.1 °F 93% 30.37 in 4.0 mi North 4.6 mph - N/A   Overcast
9:53 AM 37.9 °F - 35.1 °F 89% 30.36 in 9.0 mi Calm Calm - N/A   Overcast
10:15 AM 37.9 °F - 35.1 °F 89% 30.34 in 10.0 mi Calm Calm - N/A   Overcast
10:53 AM 39.0 °F - 34.0 °F 82% 30.36 in 10.0 mi Calm Calm - N/A   Mostly Cloudy
11:42 AM 41.0 °F 39.0 °F 36.0 °F 82% 30.33 in 10.0 mi Variable 3.5 mph - N/A   Overcast
11:53 AM 42.1 °F 40.2 °F 36.0 °F 79% 30.35 in 10.0 mi ESE 3.5 mph - N/A   Overcast
12:53 PM 42.1 °F - 37.0 °F 82% 30.33 in 10.0 mi Calm Calm - N/A   Overcast
1:53 PM 45.0 °F 40.1 °F 37.0 °F 74% 30.31 in 10.0 mi North 9.2 mph - N/A   Overcast
2:53 PM 44.1 °F 42.5 °F 37.9 °F 79% 30.30 in 10.0 mi North 3.5 mph - N/A   Overcast
3:53 PM 45.0 °F - 39.0 °F 80% 30.29 in 10.0 mi Calm Calm - N/A   Overcast
4:53 PM 45.0 °F 40.1 °F 37.9 °F 76% 30.28 in 10.0 mi North 9.2 mph - N/A   Overcast
5:53 PM 44.1 °F 40.8 °F 37.9 °F 79% 30.27 in 10.0 mi North 5.8 mph - N/A   Overcast
6:53 PM 44.1 °F 41.5 °F 37.9 °F 79% 30.27 in 8.0 mi North 4.6 mph - N/A   Overcast
7:53 PM 44.1 °F - 37.9 °F 79% 30.27 in 8.0 mi Calm Calm - N/A   Overcast
8:53 PM 44.1 °F 42.5 °F 37.9 °F 79% 30.27 in 8.0 mi Variable 3.5 mph - N/A   Overcast
9:53 PM 44.1 °F - 37.0 °F 76% 30.26 in 10.0 mi Calm Calm - N/A   Overcast
10:53 PM 44.1 °F - 37.9 °F 79% 30.26 in 9.0 mi Calm Calm - N/A   Overcast
11:53 PM 44.1 °F 42.5 °F 37.0 °F 76% 30.25 in 10.0 mi East 3.5 mph - N/A   Overcast